COSMOS 2564 (761)

Last updated on Thu Jul 03 2025 00:03:17 GMT+0000 (Coordinated Universal Time)

1 54377U 22161A 25183.17330389 .00000074 00000+0 00000+0 0 9990 2 54377 64.7393 204.3307 0011917 225.1645 134.7878 2.13102168 20175
UTC large
Height (km)
Speed (km/s)
/
Latitude / Longitude
Inclination (degrees)
Orbital Period (minutes)
Azimuth
Elevation
Range (km)
Doppler Factor

Next 0 passes for location: London (51.5072 / 0.1276)

Sorry there are no passes over London.